Date String (YYYY-MM-DD hh:mm:ss) UTC,Instrument flags,Ambient pressure (hPa),Sample flow (lpm),Bypass flow (lpm),Sample temperature (°C),Ambient temperature (°C),ASC tube jacket temperature (°C),LED temperature (°C),Box temperature (°C),Sample RH (%),Span deviation,Mass concentration (μg/m³),Mass concentration (μg/m³),Mass concentration (μg/m³)
DateTimeUTC,F1_M11,P_M11,Q1_M11,Q2_M11,T1_M11,T2_M11,T3_M11,T4_M11,T5_M11,U1_M11,ZSPAN_M11,X0_M11,X2_M11,X1_M11
2021-09-06 20:00:00,,0827.7,5.00,0.00,29.0,27.5,00.0,37.9,30.8,12.4,0002.6,0025.58,0017.15,0016.24
2021-09-06 20:01:00,,0827.7,5.00,0.00,29.0,27.8,00.0,37.9,30.9,12.2,0002.3,0026.48,0017.20,0016.25
2021-09-06 20:02:00,,0827.7,5.01,0.00,29.1,28.1,00.0,38.0,31.0,11.9,0001.2,0026.46,0017.15,0016.21
2021-09-06 20:03:00,,0827.8,4.99,0.00,29.1,27.0,00.0,38.0,30.8,11.9,0000.3,0026.54,0017.13,0016.16
2021-09-06 20:04:00,,0827.7,5.00,0.00,29.0,25.7,00.0,38.0,30.4,11.9,0000.3,0026.62,0017.11,0016.13
2021-09-06 20:05:00,,0827.7,5.00,0.00,28.9,26.0,00.0,38.0,30.4,12.0,-000.0,0026.11,0017.08,0016.11
2021-09-06 20:06:00,,0827.7,5.01,0.00,28.9,26.4,00.0,37.9,30.5,12.0,-000.2,0025.66,0017.05,0016.05
2021-09-06 20:07:00,,0827.7,4.99,0.00,28.9,26.8,00.0,37.9,30.6,12.4,-000.6,0025.82,0017.04,0016.04
2021-09-06 20:08:00,,0827.7,5.01,0.00,28.9,27.2,00.0,37.9,30.7,12.4,-000.8,0026.05,0017.01,0016.02
2021-09-06 20:09:00,,0827.7,4.99,0.00,29.0,27.6,00.0,38.0,30.9,12.5,-000.6,0026.26,0016.99,0016.01
2021-09-06 20:10:00,,0827.7,5.01,0.00,29.1,27.9,00.0,38.0,30.9,12.7,-000.8,0026.26,0016.91,0015.96
2021-09-06 20:11:00,,0827.7,4.99,0.00,29.1,26.8,00.0,38.0,30.6,12.1,-000.8,0026.36,0016.91,0015.98
2021-09-06 20:12:00,,0827.7,5.01,0.00,28.9,25.7,00.0,38.0,30.3,12.0,-000.5,0025.14,0016.84,0015.98
2021-09-06 20:13:00,,0827.7,5.00,0.00,28.8,26.0,00.0,37.9,30.3,12.4,0000.2,0024.69,0016.82,0015.98
2021-09-06 20:14:00,,0827.7,4.99,0.00,28.8,26.4,00.0,37.9,30.5,13.0,0001.0,0024.79,0016.84,0016.02
2021-09-06 20:15:00,,0827.7,5.01,0.00,28.9,26.9,00.0,37.9,30.6,12.5,0001.1,0025.03,0016.88,0016.04
2021-09-06 20:16:00,,0827.6,4.99,0.00,28.9,27.3,00.0,37.9,30.7,12.2,0001.2,0025.09,0016.87,0016.04
2021-09-06 20:17:00,,0827.6,5.01,0.00,29.0,27.7,00.0,37.9,30.9,12.0,0001.2,0025.09,0016.83,0016.03
2021-09-06 20:18:00,,0827.6,4.98,0.00,29.1,27.9,00.0,38.0,31.0,11.9,0001.3,0024.51,0016.80,0016.01
2021-09-06 20:19:00,,0827.5,5.01,0.00,29.0,26.8,00.0,38.0,30.7,11.9,0001.4,0024.41,0016.80,0016.00
2021-09-06 20:20:00,,0827.6,5.00,0.00,28.9,25.7,00.0,37.9,30.3,11.7,0001.5,0025.36,0016.78,0015.96
2021-09-06 20:21:00,,0827.5,5.00,0.00,28.8,26.0,00.0,37.9,30.3,12.1,0001.9,0025.30,0016.75,0015.93
2021-09-06 20:22:00,,0827.5,4.99,0.00,28.8,26.4,00.0,37.9,30.5,11.9,0002.2,0025.19,0016.67,0015.88
2021-09-06 20:23:00,,0827.5,5.00,0.00,28.9,26.8,00.0,37.9,30.6,12.2,0001.8,0025.17,0016.65,0015.87
2021-09-06 20:24:00,,0827.5,5.00,0.00,28.9,27.2,00.0,37.9,30.8,12.5,0001.3,0025.21,0016.64,0015.85
2021-09-06 20:25:00,,0827.5,5.00,0.00,29.0,27.6,00.0,37.9,30.9,12.3,0001.2,0024.96,0016.63,0015.83
2021-09-06 20:26:00,,0827.4,4.99,0.00,29.1,28.0,00.0,37.9,31.0,12.1,0001.9,0024.87,0016.59,0015.80
2021-09-06 20:27:00,,0827.4,5.01,0.00,29.1,27.8,00.0,38.0,31.0,12.3,0002.5,0025.39,0016.60,0015.78
2021-09-06 20:28:00,,0827.4,5.01,0.00,29.0,26.2,00.0,37.9,30.5,12.2,0003.2,0025.30,0016.61,0015.80
2021-09-06 20:29:00,,0827.4,5.01,0.00,28.9,25.8,00.0,37.9,30.4,12.3,0003.8,0024.98,0016.55,0015.79
2021-09-06 20:30:00,,0827.4,5.00,0.00,28.9,26.2,00.0,37.9,30.5,12.8,0003.9,0024.60,0016.52,0015.75
2021-09-06 20:31:00,,0827.4,4.98,0.00,28.9,26.7,00.0,37.9,30.6,12.7,0003.7,0023.37,0016.51,0015.75
2021-09-06 20:32:00,,0827.3,4.99,0.00,28.9,27.1,00.0,37.9,30.7,12.4,0003.7,0023.39,0016.51,0015.76
2021-09-06 20:33:00,,0827.3,5.01,0.00,29.0,27.6,00.0,37.9,30.8,13.4,0003.9,0023.91,0016.57,0015.80
2021-09-06 20:34:00,,0827.2,4.99,0.00,29.1,27.9,00.0,38.0,31.0,12.9,0003.8,0023.96,0016.63,0015.81
2021-09-06 20:35:00,,0827.3,5.00,0.00,29.1,28.1,00.0,38.0,31.0,12.2,0003.9,0024.14,0016.69,0015.85
2021-09-06 20:36:00,,0827.2,4.99,0.00,29.1,27.2,00.0,38.0,30.8,12.2,0003.9,0024.16,0016.67,0015.82
2021-09-06 20:37:00,,0827.2,5.00,0.00,29.0,25.8,00.0,38.0,30.4,12.4,0003.4,0024.25,0016.67,0015.84
2021-09-06 20:38:00,,0827.2,5.00,0.00,28.9,26.0,00.0,37.9,30.4,12.2,0002.9,0023.96,0016.71,0015.86
2021-09-06 20:39:00,,0827.2,5.00,0.00,28.9,26.5,00.0,37.9,30.6,11.8,0002.4,0023.95,0016.73,0015.86
2021-09-06 20:40:00,,0827.2,5.01,0.00,28.9,26.9,00.0,37.9,30.6,11.8,0001.6,0024.14,0016.78,0015.87
2021-09-06 20:41:00,,0827.2,5.00,0.00,29.0,27.3,00.0,37.9,30.8,12.0,0001.5,0024.32,0016.86,0015.92
2021-09-06 20:42:00,,0827.2,5.00,0.00,29.0,27.7,00.0,38.0,30.9,11.7,0002.2,0024.40,0016.91,0015.94
2021-09-06 20:43:00,,0827.2,5.01,0.00,29.1,27.5,00.0,38.0,30.9,11.8,0002.9,0024.40,0016.96,0015.98
2021-09-06 20:44:00,,0827.2,5.00,0.00,29.0,26.1,00.0,38.0,30.5,12.1,0002.4,0024.22,0016.98,0015.98
2021-09-06 20:45:00,,0827.3,5.01,0.00,28.9,25.7,00.0,37.9,30.3,12.0,0002.6,0024.78,0016.96,0015.99
2021-09-06 20:46:00,,0827.2,5.00,0.00,28.9,26.2,00.0,37.9,30.4,11.9,0002.4,0025.69,0016.90,0015.96
2021-09-06 20:47:00,,0827.1,4.99,0.00,28.8,26.6,00.0,37.9,30.5,12.0,0001.8,0026.20,0016.91,0015.95
2021-09-06 20:48:00,,0827.2,5.01,0.00,28.9,27.0,00.0,37.9,30.6,12.4,0001.6,0025.90,0016.90,0015.94
2021-09-06 20:49:00,,0827.2,5.00,0.00,28.9,27.4,00.0,37.9,30.8,12.5,0002.3,0025.45,0016.84,0015.93
2021-09-06 20:50:00,,0827.2,5.01,0.00,29.0,27.7,00.0,37.9,30.9,11.7,0001.8,0025.26,0016.77,0015.91
2021-09-06 20:51:00,,0827.2,5.01,0.00,29.1,27.9,00.0,38.0,31.0,11.8,0001.4,0025.08,0016.74,0015.88
2021-09-06 20:52:00,,0827.1,4.99,0.00,29.1,27.0,00.0,38.0,30.7,12.4,0001.6,0024.88,0016.70,0015.86
2021-09-06 20:53:00,,0827.3,5.02,0.00,28.9,25.7,00.0,37.9,30.3,12.2,0001.5,0024.81,0016.65,0015.85
2021-09-06 20:54:00,,0827.5,4.99,0.00,28.9,26.0,00.0,37.9,30.3,12.1,0001.7,0024.69,0016.65,0015.84
2021-09-06 20:55:00,,0827.2,4.99,0.00,28.9,26.4,00.0,37.9,30.5,12.1,0002.2,0024.76,0016.60,0015.81
2021-09-06 20:56:00,,0827.0,4.99,0.00,28.9,26.8,00.0,37.9,30.6,12.2,0002.1,0024.34,0016.56,0015.75
2021-09-06 20:57:00,,0827.0,5.01,0.00,28.9,27.2,00.0,37.9,30.7,12.3,0002.2,0023.38,0016.54,0015.71
2021-09-06 20:58:00,,0827.0,5.01,0.00,29.0,27.6,00.0,37.9,30.8,11.9,0002.1,0022.94,0016.55,0015.69
2021-09-06 20:59:00,,0827.0,5.01,0.00,29.1,27.9,00.0,38.0,30.9,11.9,0002.2,0024.51,0016.57,0015.66
